Hourly Data Report for November 17, 2018

CARBERRY CS
MANITOBA
Current Station Operator: ECCC - MSC

49°54'20.900" N
99°21'26.800" W
383.50 m
5010547
71170
WZE

Download Data

Hourly Data (November 2018)
Hourly Data Report for November 17, 2018
TIME
LST
Temp Definition
°C
Dew Point Definition
°C
Rel Hum Definition
%
Precip. Amount Definition
mm

Wind Dir Definition
10's deg

Wind Spd Definition
km/h
Visibility Definition
km
Stn Press Definition
kPa
Hmdx Definition


Wind Chill Definition


Weather Definition


00:00 -23.3 -25.8 79 0.0 26 9   98.71   -31 LegendNANA
01:00 -23.0 -25.6 79 0.0 27 11   98.74   -31 LegendNANA
02:00 -23.7 -26.4 79 0.0 27 9   98.72   -31 LegendNANA
03:00 -22.4 -24.9 80 0.0 26 12   98.71   -31 LegendNANA
04:00 -20.2 -22.6 81 0.0 25 13   98.71   -29 LegendNANA
05:00 -20.5 -23.0 80 0.0 26 14   98.69   -29 LegendNANA
06:00 -20.0 -22.4 81 0.0 27 21   98.66   -31 LegendNANA
07:00 -19.9 -22.4 81 0.0 27 19   98.65   -30 LegendNANA
08:00 -20.2 -22.7 80 0.0 26 19   98.64   -30 LegendNANA
09:00 -18.9 -21.5 80 0.0 26 22   98.59   -30 LegendNANA
10:00 -16.6 -19.6 77 0.0 26 23   98.53   -27 LegendNANA
11:00 -14.8 -18.6 72 0.0 25 21   98.42   -24 LegendNANA
12:00 -13.9 -18.4 69 0.0 25 21   98.33   -23 LegendNANA
13:00 -13.1 -17.9 67 0.0 24 20   98.26   -22 LegendNANA
14:00 -12.3 -16.9 69 0.0 24 25   98.11   -22 LegendNANA
15:00 -11.3 -16.0 68 0.0 24 25   97.96   -20 LegendNANA
16:00 -11.0 -15.5 69 0.0 24 25   97.87   -20 LegendNANA
17:00 -11.8 -15.7 73 0.0 23 21   97.78   -20 LegendNANA
18:00 -11.9 -15.7 73 0.0 24 24   97.67   -21 LegendNANA
19:00 -11.9 -15.5 75 0.0 24 23   97.57   -21 LegendNANA
20:00 -12.3 -15.8 75 0.0 24 20   97.53   -21 LegendNANA
21:00 -12.6 -15.9 76 0.0 23 13   97.48   -19 LegendNANA
22:00 -12.8 -15.7 79 0.0 23 14   97.44   -20 LegendNANA
23:00 -12.9 -15.5 81 0.0 23 12   97.38   -19 LegendNANA

Notes on Data Quality.

Legend

  • E = Estimated
  • M = Missing
  • NA = Not Available*
  • [empty] = Indicates an unobserved value
Date modified: